Location: Chris' Backyard Observatory
(47.3045°N, 122.2839°W)
Time: 14:58:17
(UTC-07:00)

Daily predictions for brighter satellites

Satellite Brightness Start Highest point End
(mag) Time Altitude Azimuth Time Altitude Azimuth Time Altitude Azimuth
Meteor 1-11 Rocket 4.1 20:22:08 10° SSW 20:27:41 70° WNW 20:33:13 10° N
Cosmos 1605 Rocket 4.4 20:21:59 10° SSE 20:27:54 43° E 20:33:45 10° NNE
Cosmos 1656 Rocket 4.2 20:23:44 10° SW 20:29:18 66° WNW 20:34:49 10° NNE
Iridium 4 Rocket 4.2 20:25:41 10° NNE 20:30:23 32° ENE 20:34:41 10° SE
Okean 2 3.4 20:27:21 10° N 20:31:34 81° E 20:35:43 10° SSE
Cosmos 1975 3.9 20:31:34 10° SE 20:34:58 25° E 20:38:23 10° NNE
DELTA 2 R/B (1) 4.4 20:30:40 10° WSW 20:35:46 38° S 20:40:51 10° ESE
Lacrosse 5 rocket 1.0 20:37:39 10° NW 20:41:27 86° NE 20:45:05 10° SE
BREEZE-M DEB (TANK) 1.5 20:42:20 10° WNW 20:44:19 63° NNE 20:47:21 10° E
Cosmos 1315 Rocket 4.2 20:41:27 10° SSW 20:45:19 45° WNW 20:49:16 10° N
Cosmos 1892 Rocket 4.2 20:41:46 10° NNW 20:46:12 63° W 20:50:37 10° S
H-2A R/B 3.3 20:43:46 10° ESE 20:47:02 24° ENE 20:50:21 10° N
Cosmos 1626 Rocket 3.8 20:42:59 10° N 20:47:18 50° ENE 20:51:33 10° SSE
Cosmos 1697 Rocket 3.8 20:45:23 10° SSE 20:49:36 22° E 20:53:51 10° NE
EO 1 Delta rocket 3.9 20:45:09 10° NNE 20:49:47 71° E 20:54:52 10° S
H-2A R/B 3.1 20:47:13 10° S 20:51:06 70° WSW 20:55:02 10° NNW
ALOS 2.8 20:46:43 10° S 20:51:21 63° W 20:56:01 10° NNW
Cosmos 2278 3.8 20:46:19 10° S 20:51:51 58° ESE 20:57:27 10° NNE
Cosmos 2123 Rocket 4.0 20:47:00 10° N 20:53:14 89° W 20:59:24 10° S
Cosmos 1461 3.1 20:49:17 10° NW 20:53:21 65° WSW 20:57:17 10° SSE
ERS-1 Rocket 3.2 20:48:49 10° SE 20:53:41 53° ENE 20:58:35 10° N
Cosmos 1898 Rocket 3.9 20:49:31 10° NNW 20:54:39 47° ENE 20:59:26 12° SE
Cosmos 1455 Rocket 3.0 20:50:29 10° S 20:54:48 84° E 20:59:11 10° N
Cosmos 1602 Rocket 3.6 20:51:19 10° N 20:55:47 61° ENE 21:00:10 10° SSE
NOSS 2-1 (D) 3.8 20:57:00 10° SW 21:00:56 71° NW 21:05:38 10° NE
NOSS 2-1 (C) 3.8 20:58:00 10° SW 21:01:57 71° NW 21:06:40 10° NE
Meteor 1-12 Rocket 4.3 20:57:59 10° S 21:03:37 62° E 21:09:23 10° NNE
Cosmos 2369 3.7 20:59:35 10° SSW 21:05:12 66° ESE 21:10:52 10° NNE
Cosmos 1939 Rocket 3.1 21:03:34 11° SSE 21:07:30 54° ENE 21:11:35 10° N
Cosmos 1980 Rocket 3.4 21:08:26 13° SE 21:11:48 21° E 21:15:54 10° NE
Cosmos 1459 Rocket 4.4 21:06:56 10° SSE 21:12:26 38° E 21:18:00 10° NNE
Resurs 01 Rocket 4.4 21:10:09 10° SW 21:13:13 18° W 21:16:19 10° NW
ATLAS CENTAUR R/B 4.0 21:09:41 10° W 21:14:00 28° NW 21:18:12 10° NNE
Lacrosse 5 2.0 21:09:52 10° NW 21:14:56 67° NNE 21:18:37 18° ESE
ARGOS 4.3 21:12:23 15° ESE 21:15:35 27° ENE 21:20:02 10° N
Cosmos 2084 3.3 21:12:05 10° NW 21:16:07 76° NE 21:18:58 20° SE
Cosmos 468 Rocket 4.5 21:12:39 10° SSE 21:17:18 36° ESE 21:21:59 10° NE
NOSS 2-1 (E) 4.3 21:14:04 10° SW 21:18:02 57° NW 21:22:51 10° NE
USA 186 3.6 21:15:54 10° SSW 21:18:38 29° W 21:21:14 10° NW
OTV 4 3.0 21:18:25 10° SSW 21:19:08 11° SSW 21:19:48 10° S
Tiangong 1 1.8 21:16:24 10° WSW 21:19:17 35° S 21:20:21 26° SE
Cosmos 220 Rocket 4.0 21:15:16 10° NNW 21:19:31 76° WSW 21:23:17 13° SSE
Cosmos 1346 Rocket 4.5 21:16:35 10° NNW 21:20:11 34° W 21:23:47 10° SSW
SPOT 5 3.2 21:20:37 18° SE 21:24:12 49° ENE 21:28:51 10° N
Cosmos 1153 Rocket 4.4 21:18:36 10° S 21:24:47 78° E 21:30:57 10° N
RESURS DK-1 2.5 21:28:02 10° NNW 21:32:10 60° ENE 21:34:13 27° SE
Cosmos 1500 3.0 21:28:32 10° S 21:32:16 69° E 21:36:03 10° NNE
Cosmos 1606 Rocket 4.4 21:31:48 25° SE 21:33:19 31° E 21:37:14 10° NNE
MetOp-B 4.3 21:30:43 21° SE 21:34:14 55° ENE 21:39:27 10° N
CZ-4 DEB 3.9 21:32:14 10° S 21:35:12 42° W 21:38:13 10° NNW
Cosmos 2227 Rocket 3.4 21:30:30 10° NW 21:35:45 40° WSW 21:40:58 10° S
PSLV R/B 3.9 21:36:12 32° E 21:36:34 33° ENE 21:39:23 10° N
Cosmos 2263 Rocket 4.0 21:32:58 10° N 21:36:51 19° NE 21:39:56 13° E
USA 215 3.6 21:32:14 17° E 21:37:18 60° NNE 21:43:43 10° NW
Cosmos 1802 Rocket 4.2 21:32:30 11° SSE 21:38:31 53° E 21:44:44 10° NNE
Cosmos 2322 Rocket 4.0 21:45:09 13° ENE 21:45:09 13° ENE 21:46:23 10° ENE
Cosmos 1340 2.9 21:39:50 10° N 21:43:34 52° ENE 21:44:44 36° SE
CZ-4 SHROUD 3.8 21:43:49 36° E 21:43:59 37° ENE 21:46:53 10° N
Cosmos 2298 Rocket 4.3 21:40:09 10° NNW 21:45:26 65° WSW 21:49:30 17° S
Cosmos 1656 3.6 21:39:52 10° SSW 21:45:29 78° ESE 21:51:03 10° NNE
Cosmos 2297 Rocket 3.3 21:46:08 10° NW 21:51:25 41° WSW 21:56:28 11° S
Cosmos 2227 4.3 21:48:54 10° NNW 21:54:38 63° ENE 21:57:19 32° SE
Cosmos 2016 Rocket 4.0 21:52:15 19° SSE 21:56:33 59° E 22:02:38 10° NNE
Cosmos 1726 Rocket 3.8 21:56:28 39° SE 21:57:28 47° E 22:01:42 10° NNE
Envisat 3.6 21:54:39 13° S 21:59:00 55° W 22:04:02 10° NNW
YAOGAN 6 2.5 21:58:34 46° SSE 21:59:34 82° E 22:03:18 10° N
Cosmos 1937 Rocket 3.7 21:55:50 10° NNW 22:01:05 72° WSW 22:04:02 27° S
H-2A R/B 2.9 22:00:30 28° E 22:01:44 32° ENE 22:06:05 10° N
ASTEX 1 3.3 21:57:59 10° N 22:03:01 69° E 22:05:29 30° S
Terra 3.0 22:02:30 25° E 22:03:23 27° ENE 22:07:21 10° N
Cosmos 1743 2.7 22:03:30 31° S 22:05:19 89° WNW 22:09:16 10° N
Cosmos 1825 Rocket 3.7 22:03:09 10° NNW 22:07:36 72° W 22:09:38 31° S
Cosmos 2173 Rocket 4.0 22:03:00 10° S 22:09:22 85° W 22:15:45 10° N
Cosmos 2098 Rocket 4.1 22:07:38 26° SSE 22:11:33 59° E 22:17:18 10° NNE
Cosmos 1953 Rocket 3.6 22:12:10 10° NNW 22:16:37 78° W 22:18:06 42° S
Cosmos 990 Rocket 4.1 22:11:29 10° NNW 22:16:44 71° WSW 22:18:54 35° S
USA 245 4.5 22:15:08 31° SSE 22:18:22 88° WSW 22:24:47 10° NNW
Cosmos 2100 Rocket 4.3 22:13:46 10° SSW 22:20:01 66° WNW 22:26:15 10° N
Lacrosse 5 rocket 3.5 22:18:16 10° W 22:20:06 13° WSW 22:20:53 13° SW
SPOT 1/Viking Rocket 3.5 22:18:32 40° SSE 22:20:31 90° WSW 22:25:47 10° NNW
MetOp-A 4.5 22:17:45 26° S 22:20:44 62° WSW 22:26:05 10° NNW
Cosmos 2061 Rocket 4.2 22:14:58 10° SSW 22:21:17 71° W 22:27:32 10° N
CZ-4B R/B 3.4 22:17:53 10° NNE 22:22:33 54° ESE 22:22:56 52° ESE
Tsikada Rocket 4.0 22:16:16 10° N 22:22:42 73° E 22:25:17 39° SSE
H-2A R/B 3.3 22:20:48 21° SSW 22:22:54 36° W 22:26:45 10° NNW
Cosmos 967 Rocket 4.5 22:17:00 10° NW 22:23:23 79° WSW 22:25:50 40° SSE
Cosmos 1842 3.1 22:20:08 10° N 22:24:05 89° E 22:24:19 79° SSE
Cosmos 1864 Rocket 4.4 22:21:48 37° SSE 22:24:10 64° E 22:30:13 10° NNE
deb Chang Zheng 4 4.5 22:24:46 10° N 22:29:05 49° WNW 22:33:07 11° SW
GP-B 4.3 22:28:09 10° NNE 22:31:16 28° ENE 22:31:16 28° ENE
Cosmos 1697 Rocket 3.1 22:27:28 10° SW 22:33:04 64° WNW 22:38:43 10° NNE
Cosmos 1758 Rocket 4.0 22:31:24 10° NNW 22:35:42 57° W 22:36:40 45° SW
SL-16 R/B 3.1 22:39:10 33° E 22:39:10 33° E 22:43:06 10° NE
NOAA 11 4.4 22:38:49 41° S 22:40:44 68° WSW 22:46:13 10° NNW
Cosmos 2228 3.0 22:42:45 66° NE 22:42:45 66° NE 22:46:35 10° NNE
IGS 5A 4.0 22:43:02 46° NE 22:43:02 46° NE 22:46:35 10° N
Cosmos 1125 Rocket 3.3 22:37:50 10° NNW 22:43:04 84° ENE 22:43:49 66° SE
Cosmos 1763 Rocket 3.4 22:44:11 36° SSW 22:46:20 79° WNW 22:51:27 10° NNE
Cosmos 1816 Rocket 4.4 22:42:30 10° N 22:48:55 89° E 22:50:46 50° S
Cosmos 2346 Rocket 4.5 22:43:51 10° N 22:50:04 64° ENE 22:51:10 55° SE
Meteor 2-5 Rocket 3.9 22:47:33 10° N 22:53:26 58° ENE 22:54:06 55° ESE
Cosmos 1725 Rocket 4.0 22:52:04 36° SSW 22:54:48 78° W 23:01:05 10° N
Cosmos 1980 Rocket 2.4 22:50:00 12° SW 22:55:13 69° WNW 23:00:57 10° NNE
ARGOS 3.7 22:53:54 38° SSW 22:55:33 51° W 23:00:49 10° NNW
Cosmos 2360 Rocket 4.1 22:58:48 15° ENE 22:58:48 15° ENE 23:00:15 10° NE
Cosmos 1666 3.5 22:57:14 47° WNW 22:57:14 47° WNW 23:00:47 10° N
Meteor 1-15 Rocket 4.3 22:55:14 45° SSW 22:57:10 83° WNW 23:03:04 10° N
Lacrosse 5 3.1 22:53:16 10° WNW 22:57:36 29° SW 22:57:49 29° SW
Cosmos 2058 Rocket 3.7 22:59:08 45° WSW 23:00:00 53° WNW 23:04:27 10° N
DELTA 2 DEB (DPAF) 4.2 23:01:08 76° WNW 23:01:08 76° WNW 23:05:28 10° NNW
Cosmos 841 Rocket 3.9 23:05:06 35° SW 23:07:12 61° WNW 23:12:24 10° NNE
DMSP B5D2-2 4.1 23:03:25 10° NNE 23:08:20 66° ENE 23:08:20 66° ENE
CZ-4C R/B 4.2 23:16:50 53° W 23:16:50 53° W 23:20:50 10° NNW
Meteor 2-17 Rocket 4.4 23:16:06 60° SSW 23:17:16 80° W 23:23:21 10° N
USA 215 3.4 23:19:35 54° SSW 23:20:22 57° SW 23:26:48 10° WNW
Meteor 1-24 Rocket 4.0 23:14:27 10° N 23:20:26 58° ENE 23:20:33 57° E
CARTOSAT-1 4.3 23:21:54 51° WNW 23:21:54 51° WNW 23:25:31 10° NNW
Cosmos 2263 Rocket 2.0 23:16:02 10° NNW 23:21:37 85° NE 23:21:37 85° NE
Cosmos 2233 Rocket 4.0 23:21:05 58° SSW 23:22:20 77° W 23:28:36 10° N
Cosmos 405 Rocket 4.3 23:21:02 10° NNW 23:23:27 33° NW 23:23:27 33° NW
Cosmos 2322 Rocket 2.1 23:26:55 83° NE 23:26:55 83° NE 23:32:21 10° NNE
Cosmos 540 Rocket 3.7 23:31:09 62° NNE 23:31:09 62° NNE 23:35:26 10° NNE
Cosmos 332 Rocket 4.3 23:32:00 55° NNE 23:32:00 55° NNE 23:35:50 10° NNE
Cosmos 371 Rocket 4.3 23:37:22 38° NNE 23:37:22 38° NNE 23:40:23 10° NNE
Cosmos 372 Rocket 4.5 23:31:52 10° NNW 23:36:23 53° W 23:36:23 53° W
Cosmos 2034 Rocket 4.3 23:40:39 52° ENE 23:40:39 52° ENE 23:46:02 10° NNE
Terra 2.8 23:41:24 40° W 23:41:24 40° W 23:45:28 10° NNW
H-2A R/B 3.0 23:41:08 36° W 23:41:08 36° W 23:45:40 10° NNW
Cosmos 1375 Rocket 4.5 23:46:53 70° SW 23:47:42 84° NW 23:54:22 10° NE
GEOS 3 Rocket 4.2 23:46:12 10° NNE 23:51:11 53° NW 23:52:29 42° W
CZ-4B R/B 4.5 23:53:40 13° NNE 23:53:40 13° NNE 23:54:16 10° NNE
